Springfield, CO

5:45 AM MDT on March 23, 2017 (GMT -0600)
Springfield

Weather History for KSPD - August, 2013

Change the Weather History Date:

Monday, August 26, 2013

  Actual Average Record
Temperature  
Mean Temperature 81 °F -  
Max Temperature 93 °F 87 °F 100 °F (2007)
Min Temperature 69 °F 59 °F 49 °F (2010)
Degree Days  
Heating Degree Days 0 0  
Month to date heating degree days 1 0  
Since 1 June heating degree days 20 23  
Since 1 July heating degree days 1 2  
Cooling Degree Days 16 8  
Month to date cooling degree days 259 253  
Year to date cooling degree days 1086 864  
Since 1 June cooling degree days 969 810  
Growing Degree Days 31 (Base 50)    
Moisture  
Dew Point 54 °F    
Average Humidity 43    
Maximum Humidity 61    
Minimum Humidity 24    
Precipitation  
Precipitation 0.00 in 0.08 in 1.31 in (2016)
Month to date precipitation 2.29  
Year to date precipitation 9.74  
Sea Level Pressure  
Sea Level Pressure 29.98 in    
Wind  
Wind Speed 16 mph (SSW)    
Max Wind Speed 26 mph    
Max Gust Speed 31 mph    
T = Trace of Precipitation, MM = Missing Value Source: NWS Daily Summary

Daily Weather History Graph

Daily Weather History Graph

Search for Another Location

Airport or City:

Trip Planner

Search our weather history database for the weather conditions in past years. The results will help you decide how hot, cold, wet, or windy it might be!

Date:

Astronomy

Aug. 26, 2013 Rise Set
Actual Time 6:16 AM MDT 7:27 PM MDT
Civil Twilight 5:49 AM MDT 7:54 PM MDT
Nautical Twilight 5:17 AM MDT 8:26 PM MDT
Astronomical Twilight 4:43 AM MDT 8:59 PM MDT
Moon 10:48 PM MDT (8/26) 12:10 PM MDT (8/26)
Length of Visible Light 14h 05m
Length of Day
13h 11m
Waning Gibbous, 66% of the Moon is Illuminated
Aug 26
Waning Gibbous
Aug 28
Last Quarter
Sep 5
New
Sep 12
First Quarter
Sep 19
Full

Hourly Weather History & Observations

Time (MDT) Temp. Heat Index Dew Point Humidity Pressure Visibility Wind Dir Wind Speed Gust Speed Precip Events Conditions
12:56 AM 72.0 °F - 55.0 °F 55% 30.02 in - South 12.7 mph - N/A   Unknown
1:56 AM 70.0 °F - 55.9 °F 61% 30.02 in - South 13.8 mph - N/A   Unknown
2:56 AM 71.1 °F - 55.9 °F 59% 30.01 in - SSW 12.7 mph - N/A   Unknown
3:56 AM 70.0 °F - 55.9 °F 61% 30.01 in - South 16.1 mph - N/A   Unknown
4:56 AM 70.0 °F - 55.9 °F 61% 30.01 in - SSW 16.1 mph 25.3 mph N/A   Unknown
5:56 AM 69.1 °F - 55.9 °F 63% 30.02 in - SSW 11.5 mph 19.6 mph N/A   Unknown
6:56 AM 69.1 °F - 55.9 °F 63% 30.03 in - SSW 9.2 mph 18.4 mph N/A   Unknown
7:56 AM 73.9 °F - 57.0 °F 55% 30.04 in - SW 13.8 mph - N/A   Unknown
8:56 AM 79.0 °F - 55.9 °F 45% 30.03 in - SW 17.3 mph 25.3 mph N/A   Unknown
9:56 AM 84.0 °F 83.3 °F 57.0 °F 40% 30.02 in - SSW 16.1 mph 25.3 mph N/A   Unknown
10:56 AM 88.0 °F 86.7 °F 57.0 °F 35% 30.01 in - SSW 19.6 mph 25.3 mph N/A   Unknown
11:56 AM 89.1 °F 87.1 °F 55.0 °F 31% 30.00 in - SSW 17.3 mph 26.5 mph N/A   Unknown
12:56 PM 91.9 °F - 50.0 °F 24% 29.98 in - SSW 17.3 mph 28.8 mph N/A   Unknown
1:56 PM 91.9 °F 89.5 °F 53.1 °F 27% 29.97 in - South 20.7 mph 31.1 mph N/A   Unknown
2:56 PM 93.0 °F - 52.0 °F 25% 29.95 in - South 19.6 mph 29.9 mph N/A   Unknown
3:56 PM 91.9 °F - 51.1 °F 25% 29.94 in - SSW 17.3 mph 27.6 mph N/A   Unknown
4:56 PM 91.0 °F - 51.1 °F 25% 29.93 in - SSW 16.1 mph 27.6 mph N/A   Unknown
5:56 PM 89.1 °F - 51.1 °F 27% 29.93 in - South 17.3 mph - N/A   Unknown
6:56 PM 86.0 °F - 51.1 °F 30% 29.93 in - South 16.1 mph - N/A   Unknown
7:56 PM 81.0 °F 80.4 °F 53.1 °F 38% 29.93 in - South 17.3 mph - N/A   Unknown
8:56 PM 78.1 °F - 54.0 °F 43% 29.94 in - South 12.7 mph - N/A   Unknown
9:56 PM 77.0 °F - 54.0 °F 45% 29.94 in - South 18.4 mph - N/A   Unknown
10:56 PM 75.0 °F - 53.1 °F 46% 29.94 in - South 18.4 mph - N/A   Unknown
11:56 PM 73.9 °F - 53.1 °F 48% 29.94 in - South 16.1 mph - N/A   Unknown